Regional Weather Roundup
Issued by NWS Jackson, KY

Home | Current Version | Previous Version | Text Only | Print | Product List | Glossary Off
Versions: 1 2 3 4 5 6 7 8 9 10 11 12 13 14 15 16 17 18 19 20 21 22 23 24 25 26 27 28 29 30 31 32 33 34 35 36 37 38 39 40 41 42 43 44 45 46 47 48 49 50

000
ASUS43 KJKL 301310
RWRJKL

EAST KENTUCKY HOURLY WEATHER ROUNDUP
NATIONAL WEATHER SERVICE JACKSON KY
900 AM EDT SAT APR 30 2016

NOTE: "FAIR" INDICATES FEW OR NO CLOUDS BELOW 12,000 FEET WITH
NO SIGNIFICANT WEATHER AND/OR OBSTRUCTIONS TO VISIBILITY.

* THESE REPORTS ARE NOT UNDER NWS QUALITY CONTROL AND MAY NOT
  REPORT WEATHER SUCH AS PRECIPITATION AND FOG.

KYZ079-080-083-085-087-088-110-112-115-119-120-301400
...EASTERN KENTUCKY...

CITY           SKY/WX    TMP DP  RH WIND       PRES   REMARKS
JACKSON        MOSUNNY   58  51  78 CALM      29.99F
LONDON         MOSUNNY   61  52  72 E6        29.96F
SOMERSET*      CLOUDY    61  52  72 CALM      29.97R
MONTICELLO*    CLOUDY    64  55  72 W9        29.97R
WILLIAMSBURG*  MOSUNNY   59  55  88 CALM      29.97R
MIDDLESBORO*   CLOUDY    62  56  81 CALM      29.98S
HARLAN APT*      N/A     59  52  77 CALM      29.99S
HAZARD APT*    SUNNY     61  55  82 CALM      29.99F
BLACK MTN*       N/A     64  45  48 SE7         N/A
PIKE CO APT*     N/A     60  54  80 E3        30.01F
BIG SANDY APT* CLOUDY    61  55  79 CALM      30.01F
MOREHEAD APT*  CLOUDY    57  50  77 VRB7      30.02F
$$

KYZ035-036-041-042-044-050-067-078-099-301400
...CENTRAL KENTUCKY...

CITY           SKY/WX    TMP DP  RH WIND       PRES   REMARKS
MT STERLING*   CLOUDY    57  52  82 E8        30.00S
FLEMING/MASON* CLOUDY    54  51  90 E10       30.02F
DANVILLE*      CLOUDY    59  54  82 E3        29.97R
RICHMOND*      CLOUDY    59  52  77 E6        29.96S
LEXINGTON      CLOUDY    60  52  74 E10       29.97S
FRANKFORT      PTSUNNY   59  51  75 E10       29.96R
LOUISVILLE     RAIN      60  54  80 S3        29.99R
LEBANON*       CLOUDY    59  55  88 CALM      29.97R
BOWLING GREEN  RAIN      60  59  96 NE7       29.95F FOG
$$

KYZ091>093-OHZ055-061-077-WVZ005-015-034-035-042-301400
...SOUTHERN OHIO/WEST VIRGINIA...

CITY           SKY/WX    TMP DP  RH WIND       PRES   REMARKS
COVINGTON      CLOUDY    53  49  86 NE12      30.00F
COLUMBUS       CLOUDY    47  43  86 E6        30.09F
DAYTON         CLOUDY    48  43  82 E7        30.07S
WILMINGTON     CLOUDY    49  46  90 E10G16    30.04F
HUNTINGTON     CLOUDY    55  50  83 NE6       30.03S
CHARLESTON     PTSUNNY   57  51  80 NE3       30.03F
PINEVILLE*     CLOUDY    61  50  67 MISG      30.09S
BECKLEY        CLOUDY    57  50  77 E7        30.06F
$$

VAZ002-007-008-TNZ017-027-036-066-071-301400
...SOUTHWEST VIRGINIA/EAST TENNESSEE...

CITY           SKY/WX    TMP DP  RH WIND       PRES   REMARKS
WISE*            N/A     64  43  45 SE3       30.05S
BRISTOL        PTSUNNY   64  54  69 E5        30.01S
MORRISTOWN*    SUNNY     64  52  63 E5        29.97R
KNOXVILLE      PTSUNNY   65  56  72 CALM      29.96R
OAK RIDGE      PTSUNNY   67  53  61 VRB3      29.98R
CROSSVILLE     CLOUDY    71  51  49 SE3       29.99R
NASHVILLE      LGT RAIN  64  61  90 E5        29.95R
$$

...KEY TO REMARKS...
VSB - VISIBILITY IN MILES
WCI - WIND CHILL INDEX
HX  - HEAT INDEX

$$



USA.gov is the U.S. government's official web portal to all federal, state and local government web resources and services.